Regional Weather Roundup
Issued by NWS

Home | Current Version | Previous Version | Text Only | Print | Product List | Glossary On
Versions: 1 2 3 4 5 6 7 8 9 10 11 12 13 14 15 16 17 18 19 20 21 22 23 24 25 26 27 28 29 30 31 32 33 34 35 36 37 38 39 40 41 42 43 44 45 46 47 48 49 50
000
ASUS45 KBOU 251407
RWRCO

WEATHER ROUNDUP FOR COLORADO
NATIONAL WEATHER SERVICE DENVER/BOULDER CO
800 AM MDT THU AUG 25 2016

NOTE: "FAIR" INDICATES FEW OR NO CLOUDS BELOW 12000 FEET WITH NO
SIGNIFICANT WEATHER AND/OR OBSTRUCTIONS TO VISIBILITY.

COZ001>005-013-030-031-251500-
...NORTHWEST COLORADO...

CITY           SKY/WX    TMP DP  RH WIND       PRES   REMARKS
CRAIG          FAIR      48  38  68 CALM      30.30R
HAYDEN         PTSUNNY   45  34  65 CALM      30.30R
MEEKER         FAIR      49  39  68 CALM      30.28R
MOUNT WERNER   NOT AVBL
STEAMBOAT SPGS FAIR      44  37  74 CALM      30.31R
WALDEN         FAIR      37  34  87 SE3       30.36S
$$

COZ006>008-011-251500-
...WEST CENTRAL VALLEYS...

CITY           SKY/WX    TMP DP  RH WIND       PRES   REMARKS
GRAND JUNCTION FAIR      61  45  55 E14       30.18R
MONTROSE       FAIR      53  42  66 SE5       30.27R
EAGLE          SUNNY     50  37  62 CALM      30.33R
RIFLE          FAIR      52  44  74 CALM      30.24R
DELTA          NOT AVBL
NUCLA          FAIR      54  41  62 E3        30.29S
$$

COZ017>023-064>068-251500-
...SOUTHWEST COLORADO...

CITY           SKY/WX    TMP DP  RH WIND       PRES   REMARKS
DURANGO        FAIR      50  45  83 CALM      30.32R
CORTEZ         FAIR      53  47  79 CALM      30.25F
PAGOSA SPRINGS FAIR      48  47  95 CALM      30.38S
TELLURIDE      FAIR      47  38  70 SE3       30.45S
WOLF CREEK PAS FAIR      37  37 100 SW9       30.61R
$$

COZ009-010-012-014-032>034-037-058>063-251500-
...CENTRAL COLORADO...

CITY           SKY/WX    TMP DP  RH WIND       PRES   REMARKS
ASPEN          FAIR      50  36  58 CALM      30.33R
BUENA VISTA    FAIR      45  42  88 CALM      30.40R
COPPER MTN     FAIR      45  28  53 SW7       30.56S
BERTHOUD PASS  FAIR      36  23  60 NW13G21   30.58R
COTTONWOOD PAS FAIR      46  37  71 CALM      30.46R
GUNNISON       FAIR      43  37  81 CALM      30.42S
KREMMLING      FAIR      41  36  81 CALM      30.37R
LEADVILLE      FAIR      40  35  83 N5        30.45S
MONARCH PASS   FAIR      37  32  81 W18       30.66S
SALIDA         FAIR      48  45  87 CALM      30.45S
SUNLIGHT       FAIR      46  34  61 NE8       30.52R
WILKERSON PASS FAIR      41  32  70 NW6       30.56R
$$

COZ069>075-251500-
...SAN LUIS VALLEY/SANGRE DE CRISTO MOUNTAINS...

CITY           SKY/WX    TMP DP  RH WIND       PRES   REMARKS
ALAMOSA        PTSUNNY   42  42 100 CALM      30.38R FOG
LA VETA PASS   FAIR      45  39  81 S5        30.48S
SAGUACHE       FAIR      45  41  87 NW12      30.39S
$$

COZ035-036-038>040-251500-
...NORTHERN COLORADO FRONT RANGE...

CITY           SKY/WX    TMP DP  RH WIND       PRES   REMARKS
DENVER INTL AP FAIR      52  41  66 CALM      30.27R
DMNS CITY PARK   N/A     54  50  87 NW6       30.27S
AURORA         MOSUNNY   53  48  86 W9        30.28R
FRONT RANGE AP MOSUNNY   55  43  62 S5        30.28
ERIE MUNI ARPT FAIR      50  48  92 N5        30.28R
BOULDER MUN AP FAIR      52  48  87 NW6       30.29R
CENTENNIAL     PTSUNNY   54  45  71 NW6       30.29R
BROOMFIELD     PTSUNNY   52  46  82 NW12      30.28R
FORT COLLINS   FAIR      52  46  82 N13       30.29R
LONGMONT       FAIR      55  47  72 N7        30.30R
$$

COZ041-046-047-076>085-087-088-251500-
...PIKES PEAK/PALMER DIVIDE AND SOUTHERN FOOTHILLS...

CITY           SKY/WX    TMP DP  RH WIND       PRES   REMARKS
COLO. SPRINGS  FAIR      55  40  56 CALM      30.30S
A. F. ACADEMY  FAIR      46  42  86 N7        30.30S
SCHRIEVER AFB  NOT AVBL
ELLICOTT       FAIR     N/A N/A N/A CALM      30.28S
FALCON         FAIR      55  50  83 S3        30.33R
FORT CARSON    NOT AVBL
LIMON          FAIR      53  37  54 SE3       30.28R
MONUMENT HILL  FAIR      54  43  66 S6        30.33R
TRINIDAD       FAIR      54  47  77 SW13      30.28S
$$

COZ042>045-048>051-090-091-251500-
...NORTHEAST COLORADO...

CITY           SKY/WX    TMP DP  RH WIND       PRES   REMARKS
GREELEY ARPT   FAIR      48  43  81 NW3       30.28R
AKRON          FAIR      54  40  59 E8        30.26R
BURLINGTON     FAIR      53  46  77 CALM      30.25R
WRAY           NOT AVBL
STERLING       FAIR      52  41  66 CALM      30.25R
HOLYOKE        FAIR      59  45  58 N7        30.25R
FORT MORGAN    NOT AVBL
$$

COZ086-089-092>099-251500-
...SOUTHEAST COLORADO...

CITY           SKY/WX    TMP DP  RH WIND       PRES   REMARKS
PUEBLO         FAIR      55  48  77 SE6       30.25R
LA JUNTA       FAIR      60  45  57 E9        30.24R
LAMAR          FAIR      61  53  75 E6        30.21S
SPRINGFIELD      N/A     58  56  93 NE9       30.24R
$$



USA.gov is the U.S. government's official web portal to all federal, state and local government web resources and services.